This is the latest recevied weather packets stored in our database for station/object YM2KV-13. If no packets are shown the sender has not sent any weather packets the latest 10 day(s).
| Time | Temp. | Humidity | Pressure | Rain* | Wind** | Luminosity | Snow |
|---|---|---|---|---|---|---|---|
| 1777585179 | 9.44° C | 81% | 1025.4 hPa | - | - | - | - |
| 1777584580 | 9.44° C | 82% | 1025.6 hPa | - | - | - | - |
| 1777583979 | 9.44° C | 82% | 1025.3 hPa | - | - | - | - |
| 1777583379 | 8.89° C | 82% | 1025.4 hPa | - | - | - | - |
| 1777582779 | 9.44° C | 80% | 1025.5 hPa | - | - | - | - |
| 1777582179 | 9.44° C | 81% | 1025.6 hPa | - | - | - | - |
| 1777581579 | 9.44° C | 81% | 1025.6 hPa | - | - | - | - |
| 1777580979 | 9.44° C | 79% | 1025.5 hPa | - | - | - | - |
| 1777580379 | 9.44° C | 80% | 1025.9 hPa | - | - | - | - |
| 1777579779 | 9.44° C | 80% | 1025.8 hPa | - | - | - | - |
| 1777579179 | 9.44° C | 82% | 1025.6 hPa | - | - | - | - |
| 1777578579 | 9.44° C | 80% | 1025.5 hPa | - | - | - | - |
| 1777577979 | 10° C | 80% | 1025.7 hPa | - | - | - | - |
| 1777577379 | 10.56° C | 77% | 1025.7 hPa | - | - | - | - |
| 1777576779 | 10.56° C | 75% | 1025.8 hPa | - | - | - | - |
| 1777576179 | 10.56° C | 76% | 1025.7 hPa | - | - | - | - |
| 1777575579 | 10.56° C | 78% | 1025.7 hPa | - | - | - | - |
| 1777574979 | 11.11° C | 76% | 1025.7 hPa | - | - | - | - |
| 1777574379 | 11.67° C | 76% | 1025.8 hPa | - | - | - | - |
| 1777573779 | 11.67° C | 75% | 1025.9 hPa | - | - | - | - |
| 1777573179 | 11.67° C | 76% | 1025.8 hPa | - | - | - | - |
| 1777572579 | 11.11° C | 77% | 1025.8 hPa | - | - | - | - |
| 1777571979 | 11.11° C | 78% | 1025.7 hPa | - | - | - | - |
| 1777571379 | 11.67° C | 77% | 1025.7 hPa | - | - | - | - |
| 1777570779 | 11.67° C | 77% | 1025.7 hPa | - | - | - | - |
* Rain since midnight (hover to see other rain measurements)
** Current wind speed in m/s (hover to see current wind gust speed)